This is the latest recevied weather packets stored in our database for station/object KE6JJJ-1. If no packets are shown the sender has not sent any weather packets the latest 10 day(s).
| Time | Temp. | Humidity | Pressure | Rain* | Wind** | Luminosity | Snow |
|---|---|---|---|---|---|---|---|
| 1788422737 | 16.67° C | 87% | 1016 hPa | 0 mm | - | 0 W/m² | - |
| 1788422703 | 16.67° C | 87% | 1016 hPa | 0 mm | - | 0 W/m² | - |
| 1788420903 | 17.22° C | 87% | 1016 hPa | 0 mm | - | 0 W/m² | - |
| 1788419103 | 17.22° C | 86% | 1015.9 hPa | 0 mm | - | 0 W/m² | - |
| 1788415503 | 17.22° C | 85% | 1016.3 hPa | 0 mm | - | 0 W/m² | - |
| 1788413703 | 17.22° C | 85% | 1016.4 hPa | 0 mm | - | 0 W/m² | - |
| 1788411904 | 17.22° C | 85% | 1016.6 hPa | 0 mm | - | 0 W/m² | - |
| 1788410103 | 17.22° C | 85% | 1016.3 hPa | 0 mm | - | 0 W/m² | - |
| 1788408303 | 17.22° C | 85% | 1016.1 hPa | 0 mm | - | 0 W/m² | - |
| 1788406503 | 17.22° C | 84% | 1015.7 hPa | 0 mm | - | 0 W/m² | - |
| 1788404703 | 17.78° C | 84% | 1015.5 hPa | 0 mm | - | 0 W/m² | - |
| 1788402903 | 17.78° C | 82% | 1015.6 hPa | 0 mm | - | 7 W/m² | - |
| 1788401103 | 18.89° C | 79% | 1015.9 hPa | 0 mm | - | 23 W/m² | - |
| 1788399303 | 20° C | 75% | 1016 hPa | 0 mm | - | 139 W/m² | - |
| 1788397503 | 20° C | 73% | 1016 hPa | 0 mm | - | 239 W/m² | - |
| 1788395703 | 21.11° C | 71% | 1016.1 hPa | 0 mm | - | 346 W/m² | - |
| 1788393903 | 20.56° C | 72% | 1016.4 hPa | 0 mm | - | 420 W/m² | - |
| 1788392103 | 21.11° C | 71% | 1016.4 hPa | 0 mm | - | 515 W/m² | - |
| 1788390303 | 21.67° C | 69% | 1016.3 hPa | 0 mm | - | 599 W/m² | - |
| 1788388503 | 22.22° C | 67% | 1016.8 hPa | 0 mm | - | 669 W/m² | - |
| 1788386703 | 22.22° C | 68% | 1017.2 hPa | 0 mm | - | 700 W/m² | - |
| 1788384903 | 22.22° C | 68% | 1017.4 hPa | 0 mm | - | 780 W/m² | - |
| 1788383103 | 21.67° C | 70% | 1017.2 hPa | 0 mm | - | 823 W/m² | - |
| 1788381303 | 21.11° C | 73% | 1017.2 hPa | 0 mm | - | 886 W/m² | - |
| 1788379503 | 21.67° C | 72% | 1017.5 hPa | 0 mm | - | 1099 W/m² | - |
* Rain latest hour (hover to see other rain measurements)
** Current wind speed in m/s (hover to see current wind gust speed)